Slayton, MN

2:59 PM CDT on April 27, 2017 (GMT -0500)
Slayton

Weather History for KDVP - November, 2012

Change the Weather History Date:

Monday, November 26, 2012

  Actual Average (KOTG) Record (KOTG)
Temperature  
Mean Temperature 16 °F -  
Max Temperature 24 °F 34 °F 60 °F (1998)
Min Temperature 9 °F 21 °F -11 °F (1977)
Degree Days  
Heating Degree Days 48    
Moisture  
Dew Point 8 °F    
Average Humidity 68    
Maximum Humidity 84    
Minimum Humidity 49    
Precipitation  
Precipitation 0.00 in - - ()
Sea Level Pressure  
Sea Level Pressure 30.34 in    
Wind  
Wind Speed 12 mph (NW)    
Max Wind Speed 20 mph    
Max Gust Speed 23 mph    
Visibility 10 miles    
Events      
Averages and records for this station are not official NWS values.
T = Trace of Precipitation, MM = Missing Value Source: NWS Daily Summary

Daily Weather History Graph

Daily Weather History Graph

Search for Another Location

Airport or City:

Trip Planner

Search our weather history database for the weather conditions in past years. The results will help you decide how hot, cold, wet, or windy it might be!

Date:

Astronomy

Nov. 26, 2012 Rise Set
Actual Time 7:32 AM CST 4:48 PM CST
Civil Twilight 7:00 AM CST 5:20 PM CST
Nautical Twilight 6:24 AM CST 5:56 PM CST
Astronomical Twilight 5:50 AM CST 6:30 PM CST
Moon 3:43 PM CST (11/26) 5:41 AM CST (11/26)
Length of Visible Light 10h 19m
Length of Day
9h 15m
Waxing Gibbous, 97% of the Moon is Illuminated
Nov 26
Waxing Gibbous
Nov 28
Full
Dec 6
Last Quarter
Dec 13
New
Dec 19
First Quarter

Hourly Weather History & Observations

Time (CST) Temp. Windchill Dew Point Humidity Pressure Visibility Wind Dir Wind Speed Gust Speed Precip Events Conditions
12:15 AM 24.8 °F 12.9 °F 18.7 °F 78% 30.19 in 10.0 mi North 13.8 mph 19.6 mph N/A   Clear
12:35 AM 22.3 °F 7.8 °F 15.8 °F 76% 30.20 in 10.0 mi NNW 18.4 mph 23.0 mph N/A   Scattered Clouds
12:55 AM 20.7 °F 7.1 °F 12.9 °F 72% 30.20 in 10.0 mi NNW 15.0 mph - N/A   Mostly Cloudy
1:15 AM 19.2 °F 4.7 °F 9.7 °F 66% 30.21 in 10.0 mi NNW 16.1 mph 20.7 mph N/A   Overcast
1:35 AM 18.9 °F 2.9 °F 9.1 °F 66% 30.22 in 10.0 mi North 19.6 mph 23.0 mph N/A   Overcast
1:55 AM 18.5 °F 4.3 °F 9.9 °F 69% 30.22 in 10.0 mi North 15.0 mph - N/A   Overcast
2:15 AM 18.0 °F 4.2 °F 9.9 °F 71% 30.22 in 10.0 mi North 13.8 mph - N/A   Mostly Cloudy
2:35 AM 17.6 °F 5.0 °F 9.5 °F 71% 30.24 in 10.0 mi North 11.5 mph - N/A   Mostly Cloudy
2:55 AM 16.7 °F 1.5 °F 8.8 °F 71% 30.25 in 10.0 mi North 16.1 mph - N/A   Overcast
3:14 AM 16.7 °F 2.0 °F 9.1 °F 72% 30.25 in 10.0 mi North 15.0 mph - N/A   Overcast
3:35 AM 16.7 °F 3.8 °F 9.5 °F 73% 30.26 in 10.0 mi North 11.5 mph - N/A   Overcast
3:55 AM 15.8 °F -0.2 °F 8.6 °F 73% 30.26 in 10.0 mi North 17.3 mph 20.7 mph N/A   Overcast
4:15 AM 15.4 °F 0.4 °F 8.4 °F 74% 30.27 in 10.0 mi North 15.0 mph - N/A   Overcast
4:35 AM 14.9 °F -0.8 °F 8.1 °F 74% 30.27 in 10.0 mi North 16.1 mph - N/A   Overcast
4:55 AM 14.9 °F 1.6 °F 8.6 °F 76% 30.28 in 10.0 mi North 11.5 mph - N/A   Overcast
5:15 AM 14.4 °F -1.0 °F 7.7 °F 75% 30.29 in 10.0 mi North 15.0 mph - N/A   Mostly Cloudy
5:35 AM 13.3 °F -2.4 °F 6.8 °F 75% 30.30 in 10.0 mi North 15.0 mph - N/A   Scattered Clouds
5:55 AM 12.2 °F -3.7 °F 4.8 °F 72% 30.31 in 10.0 mi North 15.0 mph 18.4 mph N/A   Clear
6:15 AM 11.3 °F -4.3 °F 4.6 °F 75% 30.32 in 10.0 mi NNW 13.8 mph 18.4 mph N/A   Clear
6:35 AM 11.3 °F -3.6 °F 4.6 °F 75% 30.33 in 10.0 mi NNW 12.7 mph 18.4 mph N/A   Clear
6:55 AM 10.9 °F -4.7 °F 4.5 °F 75% 30.34 in 10.0 mi NNW 13.8 mph - N/A   Clear
7:15 AM 10.8 °F -2.8 °F 4.8 °F 77% 30.35 in 10.0 mi NNW 10.4 mph - N/A   Clear
7:35 AM 10.4 °F -3.3 °F 5.2 °F 79% 30.36 in 10.0 mi NNW 10.4 mph - N/A   Clear
7:55 AM 10.2 °F -4.3 °F 5.7 °F 82% 30.37 in 10.0 mi NNW 11.5 mph - N/A   Clear
8:14 AM 10.2 °F -5.0 °F 5.7 °F 82% 30.38 in 10.0 mi NNW 12.7 mph 17.3 mph N/A   Clear
8:35 AM 9.9 °F -4.0 °F 5.9 °F 84% 30.39 in 10.0 mi NNW 10.4 mph - N/A   Clear
8:55 AM 10.2 °F -4.3 °F 5.5 °F 81% 30.40 in 10.0 mi NNW 11.5 mph - N/A   Clear
9:15 AM 10.4 °F -5.4 °F 5.5 °F 81% 30.41 in 10.0 mi NNW 13.8 mph 19.6 mph N/A   Clear
9:34 AM 11.3 °F -4.9 °F 5.7 °F 78% 30.41 in 10.0 mi NNW 15.0 mph - N/A   Clear
9:55 AM 13.1 °F -1.4 °F 6.4 °F 75% 30.41 in 10.0 mi NNW 12.7 mph 18.4 mph N/A   Clear
10:15 AM 13.3 °F -1.1 °F 5.9 °F 72% 30.43 in 10.0 mi NNW 12.7 mph - N/A   Clear
10:35 AM 14.7 °F 0.1 °F 6.4 °F 70% 30.42 in 10.0 mi NNW 13.8 mph - N/A   Clear
10:55 AM 15.8 °F 3.4 °F 6.8 °F 68% 30.42 in 10.0 mi NNW 10.4 mph - N/A   Clear
11:15 AM 16.9 °F 4.8 °F 6.6 °F 64% 30.42 in 10.0 mi NNW 10.4 mph - N/A   Clear
11:35 AM 17.8 °F 5.2 °F 6.4 °F 61% 30.43 in 10.0 mi NNW 11.5 mph - N/A   Clear
11:55 AM 18.7 °F 7.0 °F 6.6 °F 59% 30.42 in 10.0 mi NNW 10.4 mph 18.4 mph N/A   Clear
12:15 PM 19.0 °F 7.5 °F 6.3 °F 58% 30.41 in 10.0 mi NNW 10.4 mph 16.1 mph N/A   Clear
12:35 PM 19.8 °F 9.9 °F 6.4 °F 56% 30.41 in 10.0 mi NW 8.1 mph 16.1 mph N/A   Clear
12:54 PM 20.8 °F 11.2 °F 7.0 °F 55% 30.40 in 10.0 mi WNW 8.1 mph - N/A   Clear
1:15 PM 21.4 °F 10.4 °F 7.2 °F 54% 30.39 in 10.0 mi NNW 10.4 mph - N/A   Clear
1:35 PM 21.7 °F 11.5 °F 7.3 °F 54% 30.39 in 10.0 mi WNW 9.2 mph - N/A   Clear
1:55 PM 23.0 °F 13.9 °F 7.5 °F 52% 30.38 in 10.0 mi WNW 8.1 mph - N/A   Clear
2:15 PM 23.0 °F 15.8 °F 7.5 °F 52% 30.38 in 10.0 mi NW 5.8 mph - N/A   Clear
2:35 PM 23.7 °F 14.0 °F 7.5 °F 50% 30.37 in 10.0 mi WNW 9.2 mph - N/A   Clear
2:55 PM 24.4 °F 15.6 °F 7.7 °F 49% 30.37 in 10.0 mi NW 8.1 mph - N/A   Clear
3:15 PM 24.4 °F 14.2 °F 7.9 °F 49% 30.37 in 10.0 mi West 10.4 mph 16.1 mph N/A   Clear
3:35 PM 24.4 °F 13.5 °F 8.4 °F 51% 30.37 in 10.0 mi West 11.5 mph 16.1 mph N/A   Clear
3:55 PM 24.4 °F 14.2 °F 8.4 °F 51% 30.37 in 10.0 mi West 10.4 mph - N/A   Clear
4:15 PM 23.9 °F 15.0 °F 8.4 °F 52% 30.38 in 10.0 mi West 8.1 mph - N/A   Clear
4:55 PM 21.4 °F 12.8 °F 7.9 °F 56% 30.37 in 10.0 mi West 6.9 mph - N/A   Clear
5:15 PM 20.1 °F 12.3 °F 7.7 °F 59% 30.37 in 10.0 mi West 5.8 mph - N/A   Clear
5:35 PM 20.1 °F 15.2 °F 7.7 °F 59% 30.37 in 10.0 mi West 3.5 mph - N/A   Clear
5:55 PM 18.5 °F 13.3 °F 7.5 °F 62% 30.37 in 10.0 mi West 3.5 mph - N/A   Clear
6:15 PM 17.8 °F 10.9 °F 7.2 °F 63% 30.37 in 10.0 mi West 4.6 mph - N/A   Clear
6:34 PM 16.2 °F 7.6 °F 6.3 °F 65% 30.36 in 10.0 mi WSW 5.8 mph - N/A   Clear
6:55 PM 15.6 °F 7.0 °F 7.0 °F 69% 30.36 in 10.0 mi WSW 5.8 mph - N/A   Clear
7:15 PM 12.6 °F 1.1 °F 4.6 °F 71% 30.36 in 10.0 mi SW 8.1 mph - N/A   Clear
7:35 PM 14.4 °F 4.3 °F 7.2 °F 73% 30.36 in 10.0 mi SW 6.9 mph - N/A   Clear
7:55 PM 15.3 °F - 7.5 °F 71% 30.37 in 10.0 mi Calm Calm - N/A   Clear
8:15 PM 14.5 °F 5.7 °F 6.8 °F 71% 30.37 in 10.0 mi WSW 5.8 mph - N/A   Clear
8:35 PM 16.0 °F 4.4 °F 7.7 °F 70% 30.36 in 10.0 mi WSW 9.2 mph - N/A   Clear
8:55 PM 14.9 °F 4.0 °F 7.7 °F 73% 30.36 in 10.0 mi WSW 8.1 mph - N/A   Clear
9:35 PM 14.9 °F 4.0 °F 7.7 °F 73% 30.35 in 10.0 mi WSW 8.1 mph - N/A   Clear
9:55 PM 15.6 °F 4.0 °F 8.2 °F 73% 30.34 in 10.0 mi SW 9.2 mph - N/A   Clear
10:15 PM 16.7 °F 3.8 °F 8.2 °F 69% 30.33 in 10.0 mi WSW 11.5 mph - N/A   Clear
10:35 PM 17.1 °F 5.8 °F 8.1 °F 68% 30.32 in 10.0 mi SW 9.2 mph - N/A   Clear
10:55 PM 16.3 °F 3.4 °F 7.9 °F 69% 30.32 in 10.0 mi SW 11.5 mph - N/A   Clear
11:15 PM 17.1 °F 7.6 °F 7.9 °F 67% 30.32 in 10.0 mi SW 6.9 mph - N/A   Clear
11:35 PM 17.2 °F 6.0 °F 7.7 °F 66% 30.32 in 10.0 mi SW 9.2 mph - N/A   Clear
11:55 PM 17.1 °F 3.0 °F 7.7 °F 67% 30.31 in 10.0 mi SW 13.8 mph - N/A   Clear